Location: *
(55.6049°S, 142.1985°W)
Time: 01:19:25
(UTC+00:00)

NOSS 3-4 (C) - Pass Details

Date: 12 May 2021
Orbit: 873 x 1339 km, 63.4° (Epoch: 06 May)

Event Time Altitude Azimuth Distance (km) Brightness Sun altitude
Exits shadow 14:06:48 44° 239° (WSW) 1,676 4.3 -26.0°
Maximum altitude 14:08:45 53° 196° (SSW) 1,482 4.3 -25.8°
Drops below altitude 10° 14:15:55 10° 120° (ESE) 3,028 6.9 -24.7°
Sets 14:18:35 0° 114° (ESE) 3,919 7.8 -24.4°
